Location: Capannuccia
(43.7000°N, 11.3000°E)
Time: 11:02:09
(UTC+00:00)

Cosmos 1610 Rocket - Pass Details

Date: 07 June 2020
Orbit: 954 x 1001 km, 82.9° (Epoch: 04 July)

Event Time Altitude Azimuth Distance (km) Brightness Sun altitude
Exits shadow 01:24:10 26° 196° (SSW) 1,805 5.3 -17.1°
Maximum altitude 01:27:52 76° 279° (W) 991 4.4 -16.7°
Drops below altitude 10° 01:34:06 10° 5° (N) 2,718 7.8 -16.1°
Sets 01:36:38 0° 7° (N) 3,676 8.7 -15.9°
